This is the latest recevied weather packets stored in our database for station/object SP8AQK-13. If no packets are shown the sender has not sent any weather packets the latest 10 day(s).
| Time | Temp. | Humidity | Pressure | Rain* | Wind** | Luminosity | Snow |
|---|---|---|---|---|---|---|---|
| 1777891413 | 26.67° C | 26% | 1015.9 hPa | - | - | - | - |
| 1777890212 | 26.11° C | 26% | 1016.3 hPa | - | - | - | - |
| 1777889011 | 26.11° C | 29% | 1016.6 hPa | - | - | - | - |
| 1777886610 | 26.11° C | 30% | 1017 hPa | - | - | - | - |
| 1777883008 | 24.44° C | 30% | 1017.5 hPa | - | - | - | - |
| 1777881807 | 23.33° C | 32% | 1017.8 hPa | - | - | - | - |
| 1777879406 | 22.22° C | 37% | 1017.9 hPa | - | - | - | - |
| 1777878205 | 21.67° C | 37% | 1018 hPa | - | - | - | - |
| 1777877004 | 21.11° C | 36% | 1018.1 hPa | - | - | - | - |
| 1777875803 | 19.44° C | 39% | 1018.2 hPa | - | - | - | - |
| 1777874602 | 18.33° C | 43% | 1018.2 hPa | - | - | - | - |
| 1777873402 | 16.11° C | 51% | 1018.3 hPa | - | - | - | - |
| 1777872201 | 13.33° C | 68% | 1018.6 hPa | - | - | - | - |
| 1777871000 | 10° C | 82% | 1019.1 hPa | - | - | - | - |
| 1777869800 | 7.78° C | 86% | 1019.3 hPa | - | - | - | - |
| 1777868599 | 6.67° C | 88% | 1019.2 hPa | - | - | - | - |
| 1777867398 | 6.11° C | 91% | 1019.3 hPa | - | - | - | - |
| 1777846986 | 11.67° C | 61% | 1018.8 hPa | - | - | - | - |
| 1777844584 | 11.11° C | 65% | 1018.8 hPa | - | - | - | - |
| 1777842183 | 11.67° C | 62% | 1018.9 hPa | - | - | - | - |
| 1777839781 | 12.22° C | 60% | 1018.7 hPa | - | - | - | - |
| 1777838581 | 12.78° C | 56% | 1018.5 hPa | - | - | - | - |
| 1777833778 | 13.33° C | 60% | 1018.7 hPa | - | - | - | - |
| 1777832577 | 14.44° C | 57% | 1018.5 hPa | - | - | - | - |
| 1777828975 | 18.89° C | 45% | 1017.7 hPa | - | - | - | - |
* Rain since midnight (hover to see other rain measurements)
** Current wind speed in m/s (hover to see current wind gust speed)